Regional Weather Roundup
Issued by NWS

Home | Current Version | Previous Version | Graphics & Text | Print | Product List | Glossary On
Versions: 1 2 3 4 5 6 7 8 9 10 11 12 13 14 15 16 17 18 19 20 21 22 23 24 25 26 27 28 29 30 31 32 33 34 35 36 37 38 39 40 41 42 43 44 45 46 47 48 49 50
000
ASUS45 KBOU 290410
RWRCO

WEATHER ROUNDUP FOR COLORADO
NATIONAL WEATHER SERVICE DENVER/BOULDER CO
1000 PM MDT TUE JUL 28 2015

NOTE: "FAIR" INDICATES FEW OR NO CLOUDS BELOW 12000 FEET WITH NO
SIGNIFICANT WEATHER AND/OR OBSTRUCTIONS TO VISIBILITY.

COZ001>005-013-030-031-290500-
...NORTHWEST COLORADO...

CITY           SKY/WX    TMP DP  RH WIND       PRES   REMARKS
CRAIG          CLEAR     58  35  42 CALM      30.28R
HAYDEN         CLEAR     61  28  29 CALM      30.29R
MEEKER         CLEAR     61  35  37 VRB3      30.28R
MOUNT WERNER   NOT AVBL
STEAMBOAT SPGS CLEAR     59  34  39 CALM      30.32R
WALDEN         PTCLDY    54  23  30 N12       30.41S
$$

COZ006>008-011-290500-
...WEST CENTRAL VALLEYS...

CITY           SKY/WX    TMP DP  RH WIND       PRES   REMARKS
GRAND JUNCTION PTCLDY    78  28  16 NE12      30.11R
MONTROSE       CLEAR     68  40  35 SE7       30.21R
EAGLE          PTCLDY    68  34  28 S5        30.29R
RIFLE          PTCLDY    75  27  17 NW7       30.19R
DELTA          CLEAR     73  29  20 CALM      30.14R
NUCLA          CLEAR     70  30  23 E6        30.25R
$$

COZ017>023-064>068-290500-
...SOUTHWEST COLORADO...

CITY           SKY/WX    TMP DP  RH WIND       PRES   REMARKS
DURANGO        PTCLDY    72  27  18 W6        30.23R
CORTEZ         CLEAR     65  37  35 E5        30.19R
PAGOSA SPRINGS PTCLDY    68  35  29 NE6       30.31R
TELLURIDE      CLEAR     60  33  36 CALM      30.47R
WOLF CREEK PAS NOT AVBL
$$

COZ009-010-012-014-032>034-037-058>063-290500-
...CENTRAL COLORADO...

CITY           SKY/WX    TMP DP  RH WIND       PRES   REMARKS
ASPEN          CLEAR     56  40  55 S9        30.36R
BUENA VISTA    MOCLDY    67  34  30 E3        30.38R
COPPER MTN     PTCLDY    54  28  37 W7        30.69R
BERTHOUD PASS  FAIR      41  32  70 E32G40    30.73R
COTTONWOOD PAS MOCLDY    64  32  29 SE9G22    30.51R
GUNNISON       PTCLDY    63  34  34 N5        30.37R
KREMMLING      PTCLDY    59  28  31 CALM      30.37R
LEADVILLE      MOCLDY    54  31  41 CALM      30.51R
SALIDA         MOCLDY    70  36  28 E10G18    30.41R
SUNLIGHT       PTCLDY    55  27  33 CALM      30.61R
WILKERSON PASS CLOUDY    50  32  50 SE6       30.68R
$$

COZ069>075-290500-
...SAN LUIS VALLEY/SANGRE DE CRISTO MOUNTAINS...

CITY           SKY/WX    TMP DP  RH WIND       PRES   REMARKS
ALAMOSA        MOCLDY    68  46  45 SE13      30.30R
LA VETA PASS   CLOUDY    57  41  54 MISG      30.52S
SAGUACHE       MOCLDY    68  34  28 NW12      30.34R
$$

COZ035-036-038>040-290500-
...NORTHERN COLORADO FRONT RANGE...

CITY           SKY/WX    TMP DP  RH WIND       PRES   REMARKS
DENVER INTL AP MOCLDY    68  38  33 E10       30.27R
DMNS CITY PARK   N/A     70  45  40 E10       30.27R
AURORA         MOCLDY    67  45  45 SE9       30.29R
FRONT RANGE AP NOT AVBL
ERIE MUNI ARPT CLOUDY    73  36  25 E10       30.25R
BOULDER MUN AP CLOUDY    72  37  28 NW7       30.28R
CENTENNIAL     MOCLDY    70  43  37 SE9       30.29R
BROOMFIELD     MOCLDY    73  37  27 E10       30.28R
FORT COLLINS   MOCLDY    73  37  27 SE3       30.26R
LONGMONT       CLOUDY    74  40  29 CALM      30.28R
$$

COZ041-046-047-076>085-087-088-290500-
...PIKES PEAK/PALMER DIVIDE AND SOUTHERN FOOTHILLS...

CITY           SKY/WX    TMP DP  RH WIND       PRES   REMARKS
COLO. SPRINGS  PTCLDY    67  42  40 E8        30.33R
A. F. ACADEMY  PTCLDY    65  41  41 S9        30.35R
ELLICOTT       PTCLDY   N/A N/A N/A E13       30.30R
FALCON         PTCLDY    59  43  54 NE7       30.38R
FORT CARSON    CLEAR     69  41  36 VRB1      30.29R
LIMON          CLEAR     64  45  49 E9        30.27R
MONUMENT HILL  MOCLDY    61  41  48 SE9       30.38R
TRINIDAD       CLOUDY    71  50  47 NW7       30.23R
$$

COZ042>045-048>051-090-091-290500-
...NORTHEAST COLORADO...

CITY           SKY/WX    TMP DP  RH WIND       PRES   REMARKS
GREELEY ARPT   MOCLDY    70  39  32 E7        30.24R
AKRON          CLEAR     63  43  48 SE7       30.24R
BURLINGTON     PTCLDY    66  49  54 NE7       30.21R
WRAY           CLEAR     67  47  48 CALM      30.19R
STERLING       NOT AVBL
HOLYOKE        CLEAR     63  54  72 CALM      30.18R
FORT MORGAN    CLOUDY    66  38  35 NE7       30.25R
$$

COZ086-089-092>099-290500-
...SOUTHEAST COLORADO...

CITY           SKY/WX    TMP DP  RH WIND       PRES   REMARKS
PUEBLO         PTCLDY    79  42  26 E14       30.18R
LA JUNTA       CLOUDY    75  48  38 E8        30.17R
LAMAR          CLOUDY    71  52  50 SE7       30.14R
SPRINGFIELD      N/A     68  57  68 NE6       30.17R
$$



USA.gov is the U.S. government's official web portal to all federal, state and local government web resources and services.